Погода во Фресно

США     36°44′36″N   119°47′17″W
темп.,
°C
ветер,
м/с
пор.,
м/с
влажн.,
%
обл.,
%
осадки,
мм/ч
давл.,
гПа
погр.,
м
19 апреля, пн
пн1923:00+22сз24240 0.0 1017137
02:00+19ссз12295 0.0 101780
05:00+18в223084 0.0 101745
08:00+18юв1228100 0.0 1018161
11:00+24зсз11205 0.0 1018570
14:00+29сз23130 0.0 10151264
17:00+31сз34115 0.0 10121936
20:00+27сз48185 0.0 1012487
20 апреля, вт
вт2023:00+21сз5103456 0.0 1013323
02:00+18сз48400 0.0 1013244
05:00+16сз36457 0.0 1012195
08:00+16сз3445100 0.0 1013259
11:00+21зсз3332100 0.0 1012623
14:00+27з22180 0.0 10091171
17:00+28зсз33143 0.0 10061888
20:00+21сз811355 0.0 1006511
21 апреля, ср
ср2123:00+15сз713550 0.0 1007539
02:00+13сз36603 0.0 1009385
05:00+13зсз12672 0.0 1009329
08:00+13ююв11650 0.0 1011462
11:00+19св01450 0.0 1011866
14:00+23с23340 0.0 10091586
17:00+26ссз24270 0.0 10062203
20:00+23всв343218 0.0 1006231
22 апреля, чт
чт2223:00+20ссз24392 0.0 1008269
02:00+17сз23484 0.0 1009198
05:00+16сз11530 0.0 1010120
08:00+16ю01500 0.0 1012289
11:00+22з11360 0.0 1012831
14:00+26сз232482 0.0 10101442
17:00+28сз451570 0.0 10082412
20:00+25ссз37194 0.0 1008358
23 апреля, пт
пт2323:00+20ссз510350 0.0 1010338
02:00+17сз344528 0.0 1011193
05:00+16зсз11485 0.0 101196
08:00+17юз014418 0.0 1013273
11:00+23юз11295 0.0 1013663
14:00+28з22200 0.0 10111333
17:00+29зсз22150 0.0 10091890
20:00+26сз46200 0.0 1010283